Weather in Mykolaivka

Ukraine / Kharkiv Region     49°12′25″N   35°18′35″E
temp.,
°C
wind,
m/s
gust,
m/s
humid.,
%
clouds,
%
prec.,
mm/h
press.,
hPa
HPBL,
m
20 january, wed
wed2023:00−17wnw239621 0.0 102223
02:00−18wnw229511 0.0 102320
05:00−18w22940 0.0 102420
08:00−18wsw12930 0.0 102520
11:00−14wsw22860 0.0 1026234
14:00−13sw228517 0.0 1026321
17:00−16s129018 0.0 102720
20:00−16sse22909 0.0 102820
21 january, thu
thu2123:00−16sse33920 0.0 102950
02:00−17sse34910 0.0 102968
05:00−17sse34890 0.0 102979
08:00−16sse46870 0.0 1028115
11:00−9s588736 0.0 1028267
14:00−5ssw5109347 0.0 1025426
17:00−3ssw6119694 0.0 1025485
20:00−1ssw5119697 0.1 1024362
22 january, fri
fri2223:00−2ssw5119777 0.0 1023329
02:000ssw5109788 0.0 1023380
05:000ssw4997100 0.0 1022360
08:00+1ssw51097100 0.0 1022407
11:00+2ssw611100100 0.0 1021431
14:00+3ssw51399100 0.0 1020455
17:00+2ssw61198100 0.0 1020347
20:00+2s5129697 0.0 1020348
23 january, sat
sat2323:00+1s5129590 0.0 1019357
02:00+2s5119795 0.0 1019320
05:00+2s51197100 0.0 1018358
08:00+2s5129395 0.0 1018359
11:00+3s61394100 0.0 1017418
14:00+4s51291100 0.0 1017384
17:00+3sse61291100 0.0 1016330
20:00+3sse61390100 0.0 1016362
24 january, sun
sun2423:00+4sse61590100 0.0 1016382
02:00+3sse61490100 0.0 1016376
05:00+2sse6149097 0.0 1015304
08:00+3sse7148699 0.0 1016354
11:00+5sse71581100 0.0 1015480
14:00+5sse71379100 0.0 1013453
17:00+3sse71580100 0.0 1013436
20:00+2sse71478100 0.0 1013428